{"data":{"norad_id":61624,"intl_designator":"2024-191D","name":"STARLINK-32398","alt_names":[],"object_type":"PAYLOAD","status":"ACTIVE","operator":null,"country":"US","launch_date":"2024-10-23","launch_site_code":"AFETR","launch_vehicle":null,"mission":null,"orbit_class":"UNKNOWN","rcs_meters":null,"size_class":null,"mass_kg":null,"dimensions":null,"purposes":["comms"],"wikipedia_slug":null,"has_3d_model":false,"image_url":null,"decayed_at":null,"tle_current":{"epoch":"2026-05-25T04:13:14.558016Z","epoch_age_seconds":55923,"freshness":"FRESH","line1":"1 61624U 24191D   26145.17586294  .00000257  00000+0  18877-4 0  9994","line2":"2 61624  43.0017  82.5783 0001163 267.1588  92.9130 15.27577864 89235","mean_motion":15.27577864,"eccentricity":0.0001163,"inclination_deg":43.0017,"raan_deg":82.5783,"arg_perigee_deg":267.1588,"mean_anomaly_deg":92.913,"bstar":1.8877e-5,"rev_number":8923,"period_min":94.266880526098,"perigee_km":482.25753531271,"apogee_km":483.85344868635,"semimajor_km":6861.1924919995,"source":"CELESTRAK","updated_at":"2026-05-25T13:38:19.406900Z"}}}